TimeEST,TemperatureF,Dew PointF,Humidity,Sea Level PressureIn,VisibilityMPH,Wind Direction,Wind SpeedMPH,Gust SpeedMPH,PrecipitationIn,Events,Conditions,WindDirDegrees,DateUTC
12:15 AM,22.6,16.3,77,30.27,10.0,NNE,3.5,-,N/A,,Clear,20,2013-11-15 05:15:00
12:35 AM,21.9,16.0,78,30.27,10.0,North,3.5,-,N/A,,Clear,10,2013-11-15 05:35:00
12:55 AM,21.6,15.6,78,30.26,10.0,Calm,Calm,-,N/A,,Clear,0,2013-11-15 05:55:00
1:15 AM,21.9,15.4,76,30.26,10.0,Calm,Calm,-,N/A,,Clear,0,2013-11-15 06:15:00
1:35 AM,22.6,16.2,76,30.26,10.0,Calm,Calm,-,N/A,,Clear,0,2013-11-15 06:35:00
1:55 AM,23.0,15.8,74,30.26,10.0,Calm,Calm,-,N/A,,Clear,0,2013-11-15 06:55:00
2:15 AM,22.6,16.0,76,30.26,10.0,Calm,Calm,-,N/A,,Clear,0,2013-11-15 07:15:00
2:35 AM,21.0,15.4,79,30.27,10.0,Calm,Calm,-,N/A,,Clear,0,2013-11-15 07:35:00
2:55 AM,20.1,14.9,80,30.27,10.0,Calm,Calm,-,N/A,,Clear,0,2013-11-15 07:55:00
3:15 AM,20.8,14.7,77,30.26,10.0,NNE,3.5,-,N/A,,Clear,20,2013-11-15 08:15:00
3:35 AM,20.1,15.3,81,30.24,10.0,NNE,3.5,-,N/A,,Clear,20,2013-11-15 08:35:00
3:55 AM,19.6,14.5,81,30.24,10.0,Calm,Calm,-,N/A,,Clear,0,2013-11-15 08:55:00
4:15 AM,20.3,14.7,79,30.26,10.0,Calm,Calm,-,N/A,,Clear,0,2013-11-15 09:15:00
4:35 AM,20.7,15.8,81,30.25,10.0,Calm,Calm,-,N/A,,Clear,0,2013-11-15 09:35:00
4:55 AM,21.7,15.8,78,30.26,10.0,Calm,Calm,-,N/A,,Clear,0,2013-11-15 09:55:00
5:15 AM,21.7,15.6,77,30.26,10.0,Calm,Calm,-,N/A,,Clear,0,2013-11-15 10:15:00
5:35 AM,20.3,14.7,79,30.26,10.0,Calm,Calm,-,N/A,,Clear,0,2013-11-15 10:35:00
5:55 AM,18.9,14.4,83,30.26,10.0,NNE,4.6,-,N/A,,Clear,30,2013-11-15 10:55:00
6:15 AM,19.4,14.9,83,30.26,10.0,Calm,Calm,-,N/A,,Clear,0,2013-11-15 11:15:00
6:35 AM,20.1,15.8,83,30.27,10.0,Calm,Calm,-,N/A,,Clear,0,2013-11-15 11:35:00
6:55 AM,20.8,15.6,80,30.28,10.0,Calm,Calm,-,N/A,,Clear,0,2013-11-15 11:55:00
7:15 AM,20.8,16.2,82,30.28,10.0,Calm,Calm,-,N/A,,Clear,0,2013-11-15 12:15:00
7:35 AM,22.1,16.7,80,30.29,10.0,Calm,Calm,-,N/A,,Clear,0,2013-11-15 12:35:00
7:55 AM,21.7,16.3,80,30.29,10.0,Calm,Calm,-,N/A,,Clear,0,2013-11-15 12:55:00
8:15 AM,23.5,18.1,80,30.30,10.0,NNE,3.5,-,N/A,,Clear,20,2013-11-15 13:15:00
8:35 AM,25.2,19.0,78,30.30,10.0,NNE,4.6,-,N/A,,Clear,30,2013-11-15 13:35:00
8:55 AM,27.5,19.9,73,30.30,10.0,NNE,3.5,-,N/A,,Clear,30,2013-11-15 13:55:00
9:15 AM,30.6,21.4,69,30.30,10.0,Calm,Calm,-,N/A,,Clear,0,2013-11-15 14:15:00
9:35 AM,34.0,19.8,56,30.29,10.0,Calm,Calm,-,N/A,,Clear,0,2013-11-15 14:35:00
9:55 AM,36.3,20.7,53,30.29,10.0,SSW,3.5,-,N/A,,Clear,200,2013-11-15 14:55:00
10:15 AM,39.4,21.9,50,30.29,10.0,Calm,Calm,-,N/A,,Clear,0,2013-11-15 15:15:00
10:35 AM,41.5,20.5,43,30.29,10.0,WSW,3.5,-,N/A,,Clear,240,2013-11-15 15:35:00
10:55 AM,43.7,19.0,37,30.29,10.0,Calm,Calm,-,N/A,,Clear,0,2013-11-15 15:55:00
11:15 AM,46.0,18.9,34,30.28,10.0,SSW,4.6,-,N/A,,Clear,200,2013-11-15 16:15:00
11:35 AM,47.7,16.0,28,30.27,10.0,SW,4.6,-,N/A,,Clear,230,2013-11-15 16:35:00
11:55 AM,48.9,16.5,28,30.27,10.0,South,3.5,-,N/A,,Clear,190,2013-11-15 16:55:00
12:15 PM,51.1,14.5,23,30.25,10.0,SSW,5.8,-,N/A,,Clear,210,2013-11-15 17:15:00
12:35 PM,51.6,14.9,23,30.24,10.0,SSW,5.8,-,N/A,,Clear,200,2013-11-15 17:35:00
12:55 PM,52.2,14.7,23,30.23,10.0,South,5.8,-,N/A,,Clear,180,2013-11-15 17:55:00
1:15 PM,53.4,14.0,21,30.22,10.0,SSW,6.9,-,N/A,,Clear,210,2013-11-15 18:15:00
1:35 PM,53.4,15.6,22,30.21,10.0,SSW,5.8,-,N/A,,Clear,200,2013-11-15 18:35:00
1:55 PM,53.8,17.2,24,30.20,10.0,SW,5.8,-,N/A,,Clear,220,2013-11-15 18:55:00
2:15 PM,54.3,19.0,25,30.19,10.0,SSW,3.5,-,N/A,,Clear,200,2013-11-15 19:15:00
2:35 PM,54.5,20.7,27,30.19,10.0,WNW,3.5,-,N/A,,Clear,290,2013-11-15 19:35:00
2:55 PM,54.0,23.2,30,30.19,10.0,SSW,3.5,-,N/A,,Clear,210,2013-11-15 19:55:00
3:15 PM,54.9,25.5,32,30.19,10.0,SW,5.8,-,N/A,,Scattered Clouds,230,2013-11-15 20:15:00
3:35 PM,54.3,26.1,34,30.19,10.0,SW,4.6,-,N/A,,Overcast,220,2013-11-15 20:35:00
3:55 PM,54.0,26.4,35,30.18,10.0,SW,4.6,-,N/A,,Overcast,230,2013-11-15 20:55:00
4:15 PM,53.6,27.0,36,30.19,10.0,SW,3.5,-,N/A,,Overcast,230,2013-11-15 21:15:00
4:35 PM,53.6,26.2,35,30.18,10.0,Calm,Calm,-,N/A,,Overcast,0,2013-11-15 21:35:00
4:55 PM,53.4,26.2,35,30.19,10.0,Calm,Calm,-,N/A,,Overcast,0,2013-11-15 21:55:00
5:15 PM,51.6,28.2,41,30.19,10.0,Calm,Calm,-,N/A,,Overcast,0,2013-11-15 22:15:00
5:35 PM,50.9,29.8,44,30.19,10.0,SW,3.5,-,N/A,,Overcast,220,2013-11-15 22:35:00
5:55 PM,49.8,29.3,45,30.19,10.0,Calm,Calm,-,N/A,,Overcast,0,2013-11-15 22:55:00
6:15 PM,49.8,29.3,45,30.19,10.0,Calm,Calm,-,N/A,,Overcast,0,2013-11-15 23:15:00
6:35 PM,49.8,30.0,47,30.19,10.0,Calm,Calm,-,N/A,Rain,Light Rain,0,2013-11-15 23:35:00
6:55 PM,48.0,33.3,57,30.20,10.0,Calm,Calm,-,N/A,Rain,Light Rain,0,2013-11-15 23:55:00
7:15 PM,45.1,35.2,68,30.20,10.0,Calm,Calm,-,N/A,Rain,Light Rain,0,2013-11-16 00:15:00
7:35 PM,45.7,35.4,67,30.21,10.0,Calm,Calm,-,N/A,Rain,Light Rain,0,2013-11-16 00:35:00
7:55 PM,43.3,38.1,82,30.21,10.0,Calm,Calm,-,0.01,Rain,Light Rain,0,2013-11-16 00:55:00
8:15 PM,42.4,39.4,89,30.21,7.0,Calm,Calm,-,N/A,Rain,Light Rain,0,2013-11-16 01:15:00
8:35 PM,43.7,41.0,90,30.21,10.0,Calm,Calm,-,N/A,Rain,Light Rain,0,2013-11-16 01:35:00
8:55 PM,43.9,40.3,87,30.22,7.0,Calm,Calm,-,0.01,Rain,Light Rain,0,2013-11-16 01:55:00
9:15 PM,43.2,40.5,90,30.23,7.0,Calm,Calm,-,0.01,Rain,Light Rain,0,2013-11-16 02:15:00
9:35 PM,43.2,40.8,91,30.23,7.0,Calm,Calm,-,0.02,Rain,Light Rain,0,2013-11-16 02:35:00
9:55 PM,42.3,40.1,92,30.23,5.0,Calm,Calm,-,0.03,Rain,Light Rain,0,2013-11-16 02:55:00
10:15 PM,42.1,40.3,93,30.24,7.0,Calm,Calm,-,0.01,Rain,Rain,0,2013-11-16 03:15:00
10:35 PM,42.1,40.3,93,30.24,5.0,Calm,Calm,-,0.03,Rain,Light Rain,0,2013-11-16 03:35:00
10:55 PM,41.9,40.3,94,30.25,5.0,Calm,Calm,-,0.04,Rain,Rain,0,2013-11-16 03:55:00
11:15 PM,41.7,40.1,94,30.24,5.0,North,3.5,-,0.01,Rain,Light Rain,360,2013-11-16 04:15:00
11:35 PM,41.5,40.1,95,30.23,5.0,NNE,4.6,-,0.02,,Light Drizzle,20,2013-11-16 04:35:00
11:55 PM,41.4,40.1,95,30.23,7.0,NNE,5.8,-,0.02,,Overcast,20,2013-11-16 04:55:00